Hourly Data Report for October 30, 2014

All times are specified in Local Standard Time (LST). Add 1 hour to adjust for Daylight Saving Time where and when it is observed.

MONCTON INTL A
NEW BRUNSWICK

46°06'44.000" N
64°40'43.000" W
70.70 m
8103201
71705
YQM

Download Data

Hourly Data (October 2014)
Hourly Data Report for October 30, 2014
Temp Definition
°C
Dew Point Temp Definition
°C
Rel Hum Definition
%
Wind Dir Definition
10's deg

Wind Spd Definition
km/h
Visibility Definition
km
Stn Press Definition
kPa
Hmdx Definition


Wind Chill Definition


Weather Definition


TIME
00:00 Legend Double Dagger 13.7 12.4 92 24 16 16.1 99.57     LegendNANA
01:00 Legend Double Dagger 13.3 12.2 93 23 25 3.2 99.62     Moderate Rain Showers,Fog
02:00 Legend Double Dagger 12.8 11.9 94 24 19 24.1 99.62     Cloudy
03:00 Legend Double Dagger 10.6 7.7 82 25 17 24.1 99.73     LegendNANA
04:00 Legend Double Dagger 10.1 8.6 90 23 14 16.1 99.73     Rain Showers
05:00 Legend Double Dagger 9.5 7.8 89 24 17 24.1 99.77     Mostly Cloudy
06:00 Legend Double Dagger 8.3 6.6 89 25 21 24.1 99.82     LegendNANA
07:00 Legend Double Dagger 7.1 5.3 88 24 17 24.1 99.87     LegendNANA
08:00 Legend Double Dagger 7.3 5.3 87 23 17 24.1 99.97     Mainly Clear
09:00 Legend Double Dagger 8.5 4.9 78 25 23 24.1 100.00     LegendNANA
10:00 Legend Double Dagger 9.2 4.6 73 26 24 24.1 99.99     LegendNANA
11:00 Legend Double Dagger 9.3 4.5 72 27 21 24.1 99.99     Mostly Cloudy
12:00 Legend Double Dagger 9.8 4.6 70 25 21 24.1 99.97     LegendNANA
13:00 Legend Double Dagger 10.2 4.2 66 25 19 24.1 99.95     LegendNANA
14:00 Legend Double Dagger 11.8 3.6 57 26 18 24.1 99.97     Mostly Cloudy
15:00 Legend Double Dagger 11.3 2.6 55 28 17 24.1 100.01     LegendNANA
16:00 Legend Double Dagger 10.6 2.2 56 28 15 24.1 100.06     LegendNANA
17:00 Legend Double Dagger 9.4 1.6 58 27 17 24.1 100.14     Mainly Clear
18:00 Legend Double Dagger 7.4 1.7 67 28 9 24.1 100.21     LegendNANA
19:00 Legend Double Dagger 7.9 2.0 66 32 13 24.1 100.27     LegendNANA
20:00 Legend Double Dagger 7.3 2.0 69 32 9 24.1 100.32     Mostly Cloudy
21:00 Legend Double Dagger 7.0 1.3 67 32 9 24.1 100.35     LegendNANA
22:00 Legend Double Dagger 6.6 0.5 65 30 7 24.1 100.38     LegendNANA
23:00 Legend Double Dagger 5.8 -0.5 64 30 10 24.1 100.40     Mostly Cloudy

Notes on Data Quality.

Legend

  • E = Estimated
  • M = Missing
  • NA = Not Available
  • ‡ = Partner data that is not subject to review by the National Climate Archives
Date modified: